This demonstration page uses our WeatherBlox Daily Observations layout. Learn more.

Left ArrowRight Arrow

44.8408, -93.29828

Hourly Observations for May 25, 2021

Temp ( °F °C ) Dew Point ( °F °C ) Humidity (%) Winds ( mph kmh ) Pressure ( in mb ) Visibility ( mi km ) Precip ( " mm )
12:53 am 00:53 Mostly Cloudy 75 23.9 61 16.1 62 62 S 10 17 29.80 1009 10 16 0.00 0.00
1:53 am 01:53 Mostly Cloudy 75 23.9 59 15 58 58 SW 13 20 29.80 1009 10 16 0.00 0.00
2:53 am 02:53 Mostly Cloudy with Light Rain 69 20.6 63 17.2 81 81 W 14 22 29.80 1009 10 16 0.01 0.25
3:04 am 03:04 Cloudy with Nearby Thunderstorms 68 20 63 17.2 84 84 W 15 24 29.81 1009 7 11 0.00 0.00
3:27 am 03:27 Cloudy with Thunderstorms 65 18.3 62 16.7 90 90 WSW 7 11 29.81 1010 6 10 0.12 3.05
3:42 am 03:42 Cloudy with Nearby Thunderstorms 65 18.3 62 16.7 90 90 SW 5 7 29.81 1010 7 11 0.16 4.06
3:53 am 03:53 Cloudy with Nearby Thunderstorms 64 17.8 63 17.2 96 96 SW 3 6 29.83 1010 5 8 0.20 5.08
4:22 am 04:22 Cloudy with Light Rain 64 17.8 62 16.7 93 93 S 10 17 29.78 1008 10 16 0.21 5.33
4:53 am 04:53 Mostly Cloudy 64 17.8 62 16.7 93 93 SSE 5 7 29.78 1008 10 16 0.21 5.33
5:53 am 05:53 Cloudy 66 18.9 62 16.7 87 87 S 7 11 29.78 1009 10 16 0.00 0.00
6:50 am 06:50 Cloudy 66 19 63 17 88 88 SSW 10 17 29.76 1008 10 16 0.01 0.25
6:53 am 06:53 Cloudy 66 18.9 63 17.2 90 90 SSW 13 20 29.77 1008 10 16 0.01 0.25
7:16 am 07:16 Mostly Cloudy 67 19.4 64 17.8 91 91 SW 8 13 29.76 1008 10 16 0.00 0.00
7:53 am 07:53 Mostly Sunny 69 20.6 64 17.8 84 84 SW 15 24 29.76 1008 10 16 0.00 0.00
8:30 am 08:30 Mostly Cloudy 70 21.1 65 18.3 84 84 SW 14 22 29.74 1007 10 16 0.00 0.00
8:53 am 08:53 Mostly Cloudy 71 21.7 65 18.3 81 81 SW 14 22 29.75 1007 10 16 0.00 0.00
9:53 am 09:53 Mostly Cloudy 74 23.3 66 18.9 76 76 SSW 16 26 29.73 1007 10 16 0.00 0.00
10:35 am 10:35 Partly Cloudy 76 24.4 66 18.9 72 72 SW 15 24 29.71 1006 10 16 0.00 0.00
10:53 am 10:53 Partly Cloudy 77 25 66 18.9 69 69 SSW 12 19 29.72 1007 10 16 0.00 0.00
11:53 am 11:53 Partly Cloudy 80 26.7 66 18.9 62 62 SW 20 31 29.73 1007 10 16 0.00 0.00
12:53 pm 12:53 Partly Cloudy 82 27.8 64 17.8 55 55 SW 20 31 29.72 1006 10 16 0.00 0.00
1:53 pm 13:53 Mostly Sunny 84 28.9 59 15 43 43 WSW 16 26 29.71 1006 10 16 0.00 0.00
2:53 pm 14:53 Mostly Sunny 85 29.4 54 12.2 35 35 SW 20 31 29.70 1006 10 16 0.00 0.00
3:53 pm 15:53 Partly Cloudy 85 29.4 53 11.7 33 33 WSW 18 30 29.68 1005 10 16 0.00 0.00
4:53 pm 16:53 Partly Cloudy 86 30 51 10.6 30 30 W 16 26 29.67 1005 10 16 0.00 0.00
5:53 pm 17:53 Partly Cloudy 85 29.4 41 5 21 21 W 20 31 29.67 1005 10 16 0.00 0.00
6:53 pm 18:53 Partly Cloudy 83 28.3 40 4.4 22 22 W 22 35 29.68 1005 10 16 0.00 0.00
7:53 pm 19:53 Mostly Sunny 80 26.7 41 5 25 25 W 18 30 29.71 1006 10 16 0.00 0.00
8:53 pm 20:53 Mostly Clear 77 25 44 6.7 31 31 WNW 18 30 29.75 1007 10 16 0.00 0.00
9:53 pm 21:53 Mostly Clear 72 22.2 44 6.7 37 37 NW 20 31 29.80 1009 10 16 0.00 0.00
10:53 pm 22:53 Mostly Clear 69 20.6 43 6.1 39 39 WNW 16 26 29.84 1010 10 16 0.00 0.00
11:53 pm 23:53 Mostly Clear 67 19.4 44 6.7 44 44 WNW 13 20 29.85 1011 10 16 0.00 0.00

Powered by AerisWeather